Location: K�ln
(50.9455°N, 6.9544°E)
Time: 03:02:46
(UTC+01:00)

Envisat - Visible Passes

Search period start: 22 November 2017 00:00
Search period end: 02 December 2017 00:00
Orbit: 764 x 766 km, 98.2° (Epoch: 21 November)

Date Brightness Start Highest point End Pass type
(mag) Time Alt. Az. Time Alt. Az. Time Alt. Az.
22 Nov 5.0 17:58:42 10° NE 17:58:42 10° NE 17:58:52 10° NNE visible
22 Nov 4.8 19:38:55 20° N 19:38:55 20° N 19:40:26 10° N visible
23 Nov 4.8 19:01:51 18° NNE 19:01:51 18° NNE 19:03:20 10° N visible
23 Nov 5.5 20:42:03 14° NNW 20:42:03 14° NNW 20:42:46 10° NNW visible
24 Nov 4.9 18:24:47 13° NNE 18:24:47 13° NNE 18:25:50 10° NNE visible
24 Nov 5.1 20:04:59 17° NNW 20:04:59 17° NNW 20:06:09 10° NNW visible
25 Nov 4.9 19:27:55 18° N 19:27:55 18° N 19:29:15 10° N visible
26 Nov 4.9 18:50:50 15° NNE 18:50:50 15° NNE 18:52:02 10° N visible
26 Nov 5.5 20:31:03 14° NNW 20:31:03 14° NNW 20:31:42 10° NNW visible
27 Nov 5.0 18:13:45 11° NNE 18:13:45 11° NNE 18:14:19 10° NNE visible
27 Nov 5.1 19:53:58 16° N 19:53:58 16° N 19:55:00 10° N visible
28 Nov 5.0 19:16:53 16° N 19:16:53 16° N 19:18:01 10° N visible
28 Nov 5.9 20:57:05 10° NNW 20:57:05 10° NNW 20:57:07 10° NNW visible
29 Nov 5.0 18:39:47 14° NNE 18:39:47 14° NNE 18:40:43 10° N visible
29 Nov 5.5 20:20:00 14° NNW 20:20:00 14° NNW 20:20:38 10° NNW visible
30 Nov 5.1 19:42:54 15° N 19:42:54 15° N 19:43:50 10° N visible
01 Dec 5.0 19:05:48 15° N 19:05:48 15° N 19:06:46 10° N visible
01 Dec 5.8 20:46:02 10° NNW 20:46:02 10° NNW 20:46:06 10° NNW visible
